| time (UTC) | temp F | wind direction | speed MPH | gust MPH | rain 1hr in | rain 24hr in | rain mn in | humidity % | barometer mb |
| 20260506013049 | 78 | 322 | 5.0 | 13.0 | 0.00 | 0.00 | 0.00 | 35 | 1012.3 |
| 20260506011541 | 79 | 333 | 6.0 | 10.0 | 0.00 | 0.00 | 0.00 | 43 | 1012.1 |
| 20260506010035 | 79 | 0 | 1.0 | 9.0 | 0.00 | 0.00 | 0.00 | 44 | 1012.2 |
| 20260506004531 | 79 | 225 | 3.0 | 8.0 | 0.00 | 0.00 | 0.00 | 44 | 1012.2 |
| 20260506003034 | 77 | 0 | 0.0 | 10.0 | 0.00 | 0.00 | 0.00 | 46 | 1012.0 |
| 20260506001530 | 77 | 223 | 4.0 | 9.0 | 0.00 | 0.00 | 0.00 | 46 | 1012.1 |
| 20260506000036 | 78 | 221 | 3.0 | 9.0 | 0.00 | 0.00 | 0.00 | 48 | 1012.0 |
| 20260505234534 | 78 | 351 | 1.0 | 8.0 | 0.00 | 0.00 | 0.00 | 48 | 1012.1 |
| 20260505233033 | 76 | 231 | 3.0 | 10.0 | 0.00 | 0.00 | 0.00 | 48 | 1012.2 |
| 20260505231531 | 76 | 175 | 3.0 | 10.0 | 0.00 | 0.00 | 0.00 | 51 | 1012.3 |
| 20260505230052 | 75 | 117 | 2.0 | 10.0 | 0.00 | 0.00 | 0.00 | 49 | 1012.5 |
| 20260505224535 | 75 | 205 | 1.0 | 13.0 | 0.00 | 0.00 | 0.00 | 49 | 1012.9 |
| 20260505223039 | 75 | 207 | 1.0 | 7.0 | 0.00 | 0.00 | 0.00 | 51 | 1013.1 |
| 20260505221534 | 74 | 157 | 2.0 | 10.0 | 0.00 | 0.00 | 0.00 | 48 | 1013.2 |
| 20260505220047 | 73 | 194 | 1.0 | 9.0 | 0.00 | 0.00 | 0.00 | 50 | 1013.3 |
| 20260505214536 | 73 | 242 | 5.0 | 10.0 | 0.00 | 0.00 | 0.00 | 51 | 1013.5 |
| 20260505213034 | 73 | 328 | 2.0 | 8.0 | 0.00 | 0.00 | 0.00 | 50 | 1013.6 |
| 20260505211546 | 72 | 51 | 4.0 | 9.0 | 0.00 | 0.00 | 0.00 | 52 | 1013.7 |
| 20260505210035 | 72 | 345 | 3.0 | 8.0 | 0.00 | 0.00 | 0.00 | 51 | 1013.7 |
| 20260505204536 | 70 | 197 | 3.0 | 10.0 | 0.00 | 0.00 | 0.00 | 54 | 1014.1 |
| 20260505203033 | 70 | 298 | 1.0 | 9.0 | 0.00 | 0.00 | 0.00 | 55 | 1014.2 |
| 20260505201532 | 68 | 206 | 3.0 | 9.0 | 0.00 | 0.00 | 0.00 | 59 | 1014.5 |
| 20260505200039 | 68 | 17 | 5.0 | 9.0 | 0.00 | 0.00 | 0.00 | 59 | 1014.7 |
| 20260505194530 | 66 | 0 | 0.0 | 8.0 | 0.00 | 0.00 | 0.00 | 58 | 1014.9 |
| 20260505193034 | 65 | 200 | 4.0 | 10.0 | 0.00 | 0.00 | 0.00 | 60 | 1015.1 |
| 20260505191541 | 65 | 286 | 2.0 | 7.0 | 0.00 | 0.00 | 0.00 | 60 | 1015.2 |
| 20260505190033 | 64 | 266 | 3.0 | 9.0 | 0.00 | 0.00 | 0.00 | 64 | 1015.2 |
| 20260505184533 | 64 | 157 | 2.0 | 7.0 | 0.00 | 0.00 | 0.00 | 64 | 1015.4 |
| 20260505183036 | 62 | 150 | 4.0 | 8.0 | 0.00 | 0.00 | 0.00 | 65 | 1015.5 |
| 20260505181541 | 62 | 163 | 3.0 | 10.0 | 0.00 | 0.00 | 0.00 | 67 | 1015.5 |
| 20260505180034 | 62 | 188 | 1.0 | 7.0 | 0.00 | 0.00 | 0.00 | 66 | 1015.2 |
| 20260505174533 | 60 | 154 | 2.0 | 8.0 | 0.00 | 0.00 | 0.00 | 70 | 1015.6 |
| 20260505173032 | 60 | 163 | 2.0 | 10.0 | 0.00 | 0.00 | 0.00 | 73 | 1015.6 |
| 20260505171535 | 60 | 260 | 5.0 | 10.0 | 0.00 | 0.00 | 0.00 | 71 | 1015.7 |
| 20260505170034 | 59 | 196 | 5.0 | 8.0 | 0.00 | 0.00 | 0.00 | 73 | 1015.8 |
| 20260505164533 | 59 | 164 | 5.0 | 8.0 | 0.00 | 0.00 | 0.00 | 77 | 1015.9 |
| 20260505163032 | 59 | 180 | 3.0 | 7.0 | 0.00 | 0.00 | 0.00 | 75 | 1015.9 |
| 20260505161540 | 58 | 0 | 1.0 | 5.0 | 0.00 | 0.00 | 0.00 | 76 | 1015.9 |
| 20260505153033 | 55 | 0 | 0.0 | 1.0 | 0.00 | 0.00 | 0.00 | 81 | 1015.9 |
| 20260505151534 | 54 | 0 | 0.0 | 1.0 | 0.00 | 0.00 | 0.00 | 83 | 1015.7 |
| 20260505124533 | 49 | 10 | 5.0 | 8.0 | 0.00 | 0.00 | 0.00 | 91 | 1014.5 |
| 20260505123035 | 49 | 5 | 1.0 | 3.0 | 0.00 | 0.00 | 0.00 | 92 | 1014.4 |
| 20260505121538 | 48 | 0 | 1.0 | 3.0 | 0.00 | 0.00 | 0.00 | 92 | 1014.2 |
| 20260505120033 | 48 | 25 | 0.0 | 2.0 | 0.00 | 0.00 | 0.00 | 92 | 1014.2 |
| 20260505114538 | 47 | 0 | 0.0 | 0.0 | 0.00 | 0.00 | 0.00 | 92 | 1014.1 |
| 20260505113031 | 47 | 0 | 0.0 | 1.0 | 0.00 | 0.00 | 0.00 | 92 | 1014.2 |
| 20260505111534 | 47 | 0 | 0.0 | 1.0 | 0.00 | 0.00 | 0.00 | 91 | 1014.0 |
| 20260505101542 | 51 | 12 | 2.0 | 4.0 | 0.00 | 0.00 | 0.00 | 86 | 1013.7 |
| 20260505100035 | 52 | 0 | 0.0 | 2.0 | 0.00 | 0.00 | 0.00 | 85 | 1013.6 |
| 20260505094532 | 53 | 78 | 0.0 | 2.0 | 0.00 | 0.00 | 0.00 | 84 | 1013.7 |
| 20260505093034 | 53 | 0 | 0.0 | 3.0 | 0.00 | 0.00 | 0.00 | 83 | 1013.7 |
| 20260505091535 | 54 | 351 | 1.0 | 3.0 | 0.00 | 0.00 | 0.00 | 83 | 1013.7 |
| 20260505090043 | 54 | 0 | 0.0 | 1.0 | 0.00 | 0.00 | 0.00 | 81 | 1013.7 |
| 20260505084550 | 55 | 0 | 0.0 | 3.0 | 0.00 | 0.00 | 0.00 | 80 | 1013.7 |
| 20260505083041 | 56 | 309 | 1.0 | 4.0 | 0.00 | 0.00 | 0.00 | 79 | 1013.7 |
| 20260505081532 | 56 | 323 | 2.0 | 6.0 | 0.00 | 0.00 | 0.00 | 78 | 1013.7 |
| 20260505080041 | 56 | 323 | 0.0 | 5.0 | 0.00 | 0.00 | 0.00 | 78 | 1013.6 |
| 20260505074531 | 57 | 0 | 2.0 | 6.0 | 0.00 | 0.00 | 0.00 | 78 | 1013.4 |
| 20260505073036 | 57 | 325 | 2.0 | 8.0 | 0.00 | 0.00 | 0.00 | 77 | 1013.2 |
| 20260505071543 | 58 | 286 | 3.0 | 9.0 | 0.00 | 0.00 | 0.00 | 76 | 1013.2 |
| 20260505070034 | 58 | 0 | 3.0 | 9.0 | 0.00 | 0.00 | 0.00 | 75 | 1013.1 |
| 20260505064541 | 59 | 343 | 3.0 | 8.0 | 0.00 | 0.00 | 0.00 | 74 | 1012.9 |
| 20260505063038 | 59 | 311 | 0.0 | 5.0 | 0.00 | 0.00 | 0.00 | 73 | 1012.8 |
| 20260505061536 | 60 | 313 | 3.0 | 8.0 | 0.00 | 0.00 | 0.00 | 72 | 1012.7 |
| 20260505060037 | 60 | 325 | 2.0 | 4.0 | 0.00 | 0.00 | 0.00 | 73 | 1012.5 |
| 20260505054536 | 61 | 360 | 0.0 | 5.0 | 0.00 | 0.00 | 0.00 | 71 | 1012.2 |
| 20260505053039 | 62 | 294 | 3.0 | 7.0 | 0.00 | 0.00 | 0.00 | 70 | 1012.2 |
| 20260505051535 | 62 | 242 | 1.0 | 5.0 | 0.00 | 0.00 | 0.00 | 70 | 1012.1 |
| 20260505041533 | 65 | 344 | 6.0 | 16.0 | 0.00 | 0.00 | 0.00 | 64 | 1011.0 |
| 20260505040037 | 66 | 292 | 8.0 | 15.0 | 0.00 | 0.00 | 0.00 | 63 | 1010.7 |
| 20260505034533 | 67 | 283 | 7.0 | 11.0 | 0.00 | 0.00 | 0.00 | 60 | 1010.5 |
| 20260505033038 | 68 | 298 | 5.0 | 12.0 | 0.00 | 0.00 | 0.00 | 59 | 1010.3 |
| 20260505031541 | 69 | 242 | 5.0 | 12.0 | 0.00 | 0.00 | 0.00 | 57 | 1009.9 |
| 20260505030035 | 70 | 244 | 8.0 | 14.0 | 0.00 | 0.00 | 0.00 | 55 | 1009.5 |
| 20260505024545 | 71 | 281 | 7.0 | 15.0 | 0.00 | 0.00 | 0.00 | 53 | 1009.4 |
| 20260505023040 | 72 | 281 | 9.0 | 18.0 | 0.00 | 0.00 | 0.00 | 52 | 1009.3 |
| 20260505021532 | 73 | 277 | 9.0 | 15.0 | 0.00 | 0.00 | 0.00 | 49 | 1009.2 |
| 20260505020037 | 74 | 253 | 8.0 | 18.0 | 0.00 | 0.00 | 0.00 | 48 | 1009.1 |
| 20260505014555 | 75 | 261 | 9.0 | 16.0 | 0.00 | 0.00 | 0.00 | 46 | 1008.9 |